This is the latest recevied weather packets stored in our database for station/object ac2ev. If no packets are shown the sender has not sent any weather packets the latest 1 day(s).
| Time | Temp. | Humidity | Pressure | Rain* | Wind** | Luminosity | Snow |
|---|---|---|---|---|---|---|---|
| 1778053650 | 7.22° C | 92% | 1008.2 hPa | 1.52 mm | - | - | - |
| 1778053351 | 7.22° C | 92% | 1008.2 hPa | 1.78 mm | - | - | - |
| 1778053050 | 7.22° C | 92% | 1008.2 hPa | 2.03 mm | - | - | - |
| 1778052750 | 7.22° C | 92% | 1008.2 hPa | 1.78 mm | - | - | - |
| 1778052451 | 7.22° C | 92% | 1008 hPa | 1.78 mm | - | - | - |
| 1778051850 | 7.22° C | 92% | 1008.1 hPa | 2.03 mm | - | - | - |
| 1778051551 | 7.22° C | 92% | 1008.2 hPa | 2.03 mm | - | - | - |
| 1778051250 | 7.22° C | 92% | 1008 hPa | 2.03 mm | - | - | - |
| 1778050951 | 7.22° C | 92% | 1008.3 hPa | 2.54 mm | - | - | - |
| 1778050652 | 7.22° C | 92% | 1008.4 hPa | 2.29 mm | - | - | - |
| 1778050051 | 7.22° C | 92% | 1008.2 hPa | 2.54 mm | - | - | - |
| 1778049751 | 7.22° C | 92% | 1008.3 hPa | 2.79 mm | - | - | - |
| 1778049450 | 7.22° C | 92% | 1008.5 hPa | 2.79 mm | - | - | - |
| 1778049151 | 7.22° C | 92% | 1008.4 hPa | 3.05 mm | - | - | - |
| 1778048850 | 7.78° C | 92% | 1008.5 hPa | 2.79 mm | - | - | - |
| 1778048250 | 7.78° C | 92% | 1009 hPa | 3.3 mm | - | - | - |
| 1778047950 | 7.78° C | 92% | 1008.9 hPa | 3.05 mm | - | - | - |
| 1778047651 | 7.78° C | 92% | 1008.9 hPa | 3.05 mm | - | - | - |
| 1778047351 | 7.78° C | 92% | 1008.8 hPa | 2.79 mm | - | - | - |
| 1778047050 | 7.78° C | 92% | 1009 hPa | 3.05 mm | - | - | - |
| 1778046450 | 7.78° C | 92% | 1008.9 hPa | 3.05 mm | - | - | - |
| 1778045237 | 7.78° C | 92% | 1008.7 hPa | 2.54 mm | - | - | - |
| 1778044632 | 8.33° C | 92% | 1009.1 hPa | 2.03 mm | - | - | - |
| 1778044028 | 8.33° C | 92% | 1009.1 hPa | 2.03 mm | - | - | - |
| 1778043424 | 8.33° C | 92% | 1009 hPa | 1.78 mm | - | - | - |
* Rain latest hour (hover to see other rain measurements)
** Current wind speed in m/s (hover to see current wind gust speed)